STARLINK-34238

Last updated on Tue Sep 16 2025 00:02:07 GMT+0000 (Coordinated Universal Time)

1 65415U 25192M 25258.58341435 -.01479834 00000+0 -15599-1 0 9992 2 65415 53.1593 338.1025 0001179 68.5055 168.8600 15.66412933 3628
UTC large
Height (km)
Speed (km/s)
/
Latitude / Longitude
Inclination (degrees)
Orbital Period (minutes)
Azimuth
Elevation
Range (km)
Doppler Factor

Next 0 passes for location: London (51.5072 / 0.1276)

Sorry there are no passes over London.